Weather History for KCMI - October, 2010

Change the Weather History Date:

Tuesday, October 12, 2010

  Actual Average Record
Temperature  
Mean Temperature 67 °F 55 °F  
Max Temperature 81 °F 67 °F 86 °F (2008)
Min Temperature 52 °F 43 °F 28 °F (2006)
Degree Days  
Heating Degree Days 0 11  
Month to date heating degree days 71 109  
Since 1 July heating degree days 113 201  
Cooling Degree Days 2 1  
Month to date cooling degree days 17 13  
Year to date cooling degree days 1326 938  
Growing Degree Days 16 (Base 50)    
Moisture  
Dew Point 50 °F    
Average Humidity 58    
Maximum Humidity 80    
Minimum Humidity 35    
Precipitation  
Precipitation 0.00 in 0.10 in 0.50 in (2001)
Month to date precipitation 0.24 1.19  
Year to date precipitation 27.37 31.75  
Sea Level Pressure  
Sea Level Pressure 29.91 in    
Wind  
Wind Speed 4 mph (West)    
Max Wind Speed 12 mph    
Max Gust Speed 14 mph    
Visibility 10 miles    
Events      
T = Trace of Precipitation, MM = Missing Value Source: NWS Daily Summary

Daily Weather History Graph

Daily Weather History Graph

Search for Another Location

Airport or City:

Trip Planner

Search our weather history database for the weather conditions in past years. The results will help you decide how hot, cold, wet, or windy it might be!

Date:

Astronomy

Oct. 12, 2010 Rise Set
Actual Time 7:00 AM CDT 6:18 PM CDT
Civil Twilight 6:33 AM CDT 6:45 PM CDT
Nautical Twilight 6:01 AM CDT 7:16 PM CDT
Astronomical Twilight 5:30 AM CDT 7:47 PM CDT
Moon 12:33 PM CDT (10/12) 9:54 PM CDT (10/12)
Length of Visible Light 12h 11m
Length of Day
11h 17m
Waxing Crescent, 29% of the Moon is Illuminated
Oct 12
Waxing Crescent
Oct 14
First Quarter
Oct 22
Full
Oct 30
Last Quarter
Nov 5
New

Hourly Weather History & Observations

Time (CDT) Temp. Dew Point Humidity Pressure Visibility Wind Dir Wind Speed Gust Speed Precip Events Conditions
12:53 AM 62.1 °F 48.9 °F 62% 29.86 in 10.0 mi Calm Calm - N/A   Clear
1:53 AM 59.0 °F 48.9 °F 69% 29.86 in 10.0 mi North 8.1 mph - N/A   Clear
2:53 AM 61.0 °F 48.0 °F 62% 29.86 in 10.0 mi NNE 4.6 mph - N/A   Clear
3:53 AM 55.9 °F 48.0 °F 75% 29.86 in 10.0 mi South 3.5 mph - N/A   Mostly Cloudy
4:53 AM 57.0 °F 48.9 °F 74% 29.87 in 10.0 mi Calm Calm - N/A   Clear
5:53 AM 53.1 °F 46.9 °F 80% 29.88 in 10.0 mi Calm Calm - N/A   Partly Cloudy
6:53 AM 55.0 °F 48.0 °F 77% 29.88 in 10.0 mi SW 4.6 mph - N/A   Scattered Clouds
7:53 AM 55.9 °F 48.9 °F 77% 29.90 in 10.0 mi Calm Calm - N/A   Clear
8:53 AM 63.0 °F 51.1 °F 65% 29.91 in 10.0 mi Calm Calm - N/A   Clear
9:53 AM 69.1 °F 51.1 °F 53% 29.92 in 10.0 mi NE 4.6 mph - N/A   Partly Cloudy
10:53 AM 72.0 °F 52.0 °F 49% 29.93 in 10.0 mi Calm Calm - N/A   Clear
11:53 AM 73.9 °F 51.1 °F 45% 29.93 in 10.0 mi East 3.5 mph - N/A   Scattered Clouds
12:53 PM 75.9 °F 50.0 °F 40% 29.93 in 10.0 mi Calm Calm - N/A   Mostly Cloudy
1:53 PM 79.0 °F 48.9 °F 35% 29.91 in 10.0 mi SSW 8.1 mph - N/A   Partly Cloudy
2:53 PM 79.0 °F 48.9 °F 35% 29.91 in 10.0 mi SSW 5.8 mph - N/A   Scattered Clouds
3:53 PM 78.1 °F 48.9 °F 36% 29.91 in 10.0 mi SW 6.9 mph - N/A   Partly Cloudy
4:53 PM 77.0 °F 48.9 °F 37% 29.91 in 10.0 mi WSW 4.6 mph - N/A   Mostly Cloudy
5:53 PM 72.0 °F 48.9 °F 44% 29.92 in 10.0 mi SW 4.6 mph - N/A   Partly Cloudy
6:53 PM 66.0 °F 48.9 °F 54% 29.93 in 10.0 mi SW 5.8 mph - N/A   Partly Cloudy
7:53 PM 66.0 °F 51.1 °F 59% 29.94 in 10.0 mi West 5.8 mph - N/A   Partly Cloudy
8:53 PM 63.0 °F 51.1 °F 65% 29.94 in 10.0 mi WNW 8.1 mph - N/A   Partly Cloudy
9:53 PM 61.0 °F 51.1 °F 70% 29.96 in 10.0 mi WNW 8.1 mph - N/A   Clear
10:53 PM 62.1 °F 52.0 °F 70% 29.96 in 10.0 mi NW 6.9 mph - N/A   Partly Cloudy
11:53 PM 57.0 °F 51.1 °F 81% 29.96 in 10.0 mi NW 5.8 mph - N/A   Partly Cloudy